Theta_e
302 301 301 301 301 301 301 301 300 300 300 300 300 300 300 299 297 299 297 300 295 292 289 290 290 288 288 288 285 288 287 288 287 282 282 281 280 282 281 283 281 280 280 280 281 278 276 292 292 287 293 297 297 297
301 301 301 300 300 301 301 300 300 300 300 300 300 300 300 299 297 298 294 298 298 294 291 294 293 294 292 292 289 290 287 287 289 285 285 284 281 283 282 277 286 280 284 283 283 283 292 295 294 296 297 297 296 297
300 300 300 300 300 300 301 300 300 300 300 300 300 299 299 299 297 297 296 297 296 292 291 291 290 295 296 295 297 287 290 290 289 292 289 286 281 285 279 281 282 286 289 285 285 289 290 292 296 296 297 297 298 299
300 300 300 299 300 300 300 300 300 300 300 300 300 299 299 298 298 297 296 298 296 292 286 289 296 293 298 297 296 295 293 294 292 291 288 285 282 287 282 283 283 286 287 284 285 288 290 292 294 295 295 299 299 299
299 299 299 299 299 299 299 300 299 300 300 300 299 299 299 299 298 299 300 298 298 291 285 287 293 295 296 295 294 294 293 290 288 287 284 282 285 285 285 284 282 286 284 283 283 288 289 289 291 294 294 297 299 298
298 298 298 298 298 298 298 299 299 299 299 299 298 299 299 298 297 298 287 298 298 296 287 282 293 291 293 294 293 292 292 291 290 287 285 286 288 285 280 280 285 287 288 289 287 290 290 292 294 294 295 297 299 299
298 298 297 298 298 298 298 298 298 298 298 298 298 299 299 298 298 293 290 296 298 297 287 283 285 293 293 293 294 292 292 291 290 287 284 285 286 287 283 279 285 287 289 290 291 291 288 291 289 296 297 298 299 299
297 298 297 297 297 297 297 297 298 298 298 298 297 297 296 296 295 292 296 297 296 289 289 282 283 287 294 289 286 292 286 286 287 286 287 284 286 285 279 284 286 288 288 288 289 291 290 291 293 296 298 299 297 297
297 297 297 297 297 297 297 297 297 296 296 295 295 295 296 293 290 291 296 296 294 289 284 284 281 281 292 289 289 286 288 282 288 283 283 284 282 279 283 285 285 287 287 287 290 291 292 292 295 296 296 296 296 296
298 297 297 297 297 297 297 296 295 295 295 295 295 291 285 290 294 296 291 287 285 286 288 283 289 283 289 288 286 285 286 283 279 284 287 282 282 287 288 288 288 289 290 293 291 291 293 293 294 294 294 295 296 296
297 297 297 297 296 296 296 295 295 295 295 294 288 288 293 297 292 290 285 284 285 283 287 286 286 284 291 284 284 287 284 284 278 282 281 281 281 287 290 290 292 292 293 294 295 296 296 295 294 294 296 297 297 297
297 296 296 296 296 295 294 294 295 294 293 293 293 296 293 290 287 282 281 283 282 281 286 285 287 289 291 292 286 287 282 284 277 286 282 280 287 289 291 292 293 294 295 295 296 295 296 296 296 296 298 297 296 293
297 296 295 296 295 294 294 294 294 294 294 294 290 287 286 285 278 277 275 278 280 285 288 288 285 288 289 291 285 283 280 280 289 281 280 285 290 291 292 293 293 294 295 296 296 295 296 296 297 297 294 289 290 288
296 296 295 294 294 293 293 294 292 291 290 288 283 279 280 278 280 282 282 285 289 289 288 288 288 285 287 282 283 278 284 284 279 278 279 289 291 291 291 292 292 290 289 292 293 291 288 286 284 285 286 286 285 284
296 296 295 295 295 294 293 294 294 295 291 285 283 277 280 285 287 288 290 289 291 291 288 287 287 288 284 281 281 281 278 277 280 281 288 292 291 290 289 290 287 285 285 284 285 284 284 285 284 284 285 285 285 284
296 295 294 295 294 294 294 295 295 295 290 285 284 280 284 283 284 285 285 286 291 289 288 289 284 283 282 283 279 278 278 278 284 290 293 293 290 289 287 286 285 285 285 284 284 284 284 284 284 283 284 284 284 284
293 292 295 295 294 294 294 293 292 287 285 283 282 286 286 285 285 287 290 290 293 288 283 285 281 280 286 281 280 284 282 288 291 293 292 290 289 287 285 284 285 285 285 284 284 285 283 284 284 284 283 283 284 283
292 295 294 294 294 293 293 292 288 286 282 284 282 286 287 287 287 288 291 292 290 287 288 283 286 282 281 279 282 288 290 288 290 291 290 288 288 288 289 288 285 287 285 285 285 284 284 285 286 286 285 285 284 283
293 294 295 295 294 291 287 288 289 283 285 287 287 288 288 289 291 291 290 291 292 291 288 286 282 282 284 287 288 289 290 292 291 291 290 288 288 287 287 287 286 287 287 287 287 287 287 287 287 286 285 285 284 284
293 293 295 294 294 288 285 286 290 286 283 287 288 287 288 289 291 291 290 289 289 287 284 282 284 288 289 291 292 293 293 294 292 290 290 290 289 288 288 287 288 288 287 287 287 286 286 285 286 285 285 285 284 283
291 294 294 294 288 288 288 288 285 285 287 286 288 288 287 290 288 288 288 291 286 284 284 288 290 292 292 292 293 294 293 293 292 292 291 291 290 289 287 288 288 287 286 286 285 285 284 284 285 285 285 284 285 284
293 294 291 292 288 286 286 290 287 289 287 288 287 288 286 286 286 287 290 286 285 287 290 291 291 291 291 291 292 293 293 292 292 291 287 289 289 286 286 287 287 286 286 286 286 285 285 285 285 285 285 284 283 283
292 292 290 288 284 283 283 290 283 285 282 284 286 283 284 285 288 290 284 286 288 292 292 291 291 291 291 291 291 291 292 291 291 291 291 291 290 291 288 287 288 286 285 286 287 286 286 285 285 285 285 283 283 282
290 285 282 282 283 280 284 281 284 284 284 282 281 279 281 285 288 284 281 285 289 291 289 289 290 290 290 290 290 291 290 292 291 291 291 290 288 288 289 287 288 288 288 288 287 287 286 286 285 285 284 282 282 281
280 280 281 279 282 280 278 279 280 280 278 280 279 279 282 286 281 280 280 285 289 287 288 289 290 288 287 289 290 291 291 291 288 287 291 290 290 290 289 288 288 289 290 288 286 286 285 285 285 285 283 282 282 281
275 279 278 279 279 278 278 276 277 278 279 278 279 283 285 282 278 277 281 287 288 287 285 285 289 288 288 290 288 288 289 291 290 288 289 289 289 289 287 286 285 286 289 289 287 286 285 285 285 284 283 283 283 283
275 277 279 282 282 280 279 280 280 279 277 276 279 279 279 275 276 281 286 289 288 291 291 291 290 288 287 288 290 291 291 291 290 289 291 291 290 290 290 288 287 289 291 289 287 286 285 285 285 284 284 284 284 283
279 279 275 278 278 281 277 277 277 276 278 281 281 277 276 277 278 286 288 290 291 291 291 291 290 290 289 289 289 288 290 291 289 289 290 290 291 291 291 291 291 285 292 289 287 287 286 286 285 285 285 285 285 285
276 277 277 277 278 278 278 278 278 280 283 282 279 278 280 284 288 288 287 288 288 288 286 286 287 286 286 286 286 287 287 287 286 284 283 284 287 289 290 288 288 289 288 287 285 286 286 286 286 286 286 286 286 286
272 276 275 276 276 276 280 282 281 283 284 283 284 284 284 285 283 286 286 284 283 282 282 282 282 282 281 282 282 284 286 287 286 284 283 284 285 286 285 285 285 286 286 286 286 286 284 285 284 286 285 285 285 285
275 275 276 276 277 279 281 282 282 282 282 282 282 281 282 282 282 282 282 283 285 285 284 282 282 283 282 281 281 281 282 286 285 286 287 287 286 286 285 285 286 286 285 285 285 285 285 284 285 284 284 284 284 284
273 272 271 271 274 280 282 280 280 280 281 280 280 280 281 281 280 280 282 283 282 281 281 281 280 280 284 284 285 285 284 285 285 286 285 285 285 286 287 287 286 285 285 286 285 285 285 284 284 284 284 283 283 284
272 273 273 273 273 273 277 277 278 277 279 279 278 279 279 279 276 279 283 284 282 281 279 280 282 283 284 284 284 285 284 285 284 284 284 284 284 285 286 286 285 285 285 285 285 285 285 284 284 284 284 283 283 283
Wind_Speed
12 12 12 13 13 13 12 13 13 13 13 12 12 12 12 9 2 3 6 4 2 3 7 4 4 7 7 8 7 9 7 6 7 7 6 9 9 9 14 15 17 16 14 13 15 19 20 16 18 13 12 13 13 10
11 12 12 12 12 12 12 12 14 14 14 13 12 12 12 10 3 6 6 3 3 2 5 1 4 5 5 3 5 9 3 4 5 6 7 6 12 11 15 15 17 17 16 13 16 13 14 8 7 8 14 11 14 13
9 11 13 13 12 12 12 13 13 14 14 14 13 13 11 10 5 6 5 4 2 3 3 6 8 11 10 11 8 6 7 7 9 6 6 6 13 10 12 15 20 18 17 13 15 16 20 21 15 18 19 22 18 15
8 10 11 12 12 12 13 13 14 14 14 14 14 12 12 11 9 5 2 2 2 0 2 1 4 9 9 13 13 12 14 9 9 7 7 8 10 9 12 15 16 14 16 16 19 19 18 22 19 15 18 24 22 17
8 11 13 11 12 11 12 14 15 14 15 14 13 12 12 11 7 3 2 2 3 3 3 5 9 12 11 11 15 15 15 14 10 9 9 11 12 13 13 15 19 14 20 15 18 17 19 18 21 20 19 20 21 11
8 10 12 14 12 11 10 12 14 13 13 13 10 11 11 11 7 2 2 6 7 3 1 4 2 9 11 16 15 15 13 13 11 10 8 12 16 9 9 17 23 23 25 25 22 22 23 21 23 23 20 20 18 11
9 13 9 10 11 10 11 12 13 12 13 15 13 12 12 11 7 2 2 5 5 5 2 4 4 2 5 10 9 11 14 9 10 10 13 13 12 13 15 22 20 21 21 17 18 16 19 22 17 16 19 19 9 6
10 12 18 13 11 11 14 11 15 17 15 14 13 12 9 7 7 5 7 9 6 3 3 4 5 5 6 5 5 4 5 4 5 6 6 13 11 12 15 22 23 24 24 24 23 23 25 22 12 24 14 9 6 9
11 12 16 16 15 14 16 16 16 15 15 13 11 9 5 3 3 3 3 5 4 4 4 6 7 2 5 4 4 4 4 6 5 8 13 7 8 13 13 16 19 19 16 17 18 21 17 13 16 16 12 7 8 8
13 14 15 16 18 17 16 15 14 14 12 12 6 3 3 4 4 11 3 3 4 4 5 5 4 5 4 3 4 4 5 5 5 9 7 13 17 21 23 20 16 16 19 17 13 13 12 9 10 11 12 9 8 6
16 16 17 17 16 15 14 14 13 13 11 3 4 3 3 10 3 4 3 5 6 5 7 6 10 10 3 5 3 3 2 4 5 5 6 6 8 15 21 25 22 21 19 17 13 12 8 9 9 8 5 3 3 5
18 18 17 16 15 14 13 12 12 7 2 1 1 3 2 4 4 4 4 3 5 4 4 4 2 1 2 2 3 4 3 4 4 8 5 4 1 4 4 6 4 11 12 13 15 14 8 8 6 4 5 6 6 9
18 17 17 16 15 13 11 10 11 4 2 2 3 4 4 3 5 6 7 5 4 4 4 3 3 3 2 2 2 3 3 4 1 3 4 3 6 2 2 2 1 5 8 11 12 11 11 4 3 6 9 8 10 9
16 15 16 15 12 10 8 8 5 1 6 3 4 5 6 6 6 5 5 1 3 2 2 2 3 4 3 3 2 4 2 2 5 4 4 2 6 5 4 4 5 5 9 7 7 9 9 7 6 10 9 8 10 9
15 15 14 13 12 10 10 8 10 5 3 2 2 5 6 4 2 2 2 2 2 3 3 3 4 4 4 3 4 3 4 5 6 3 3 5 5 5 5 6 6 6 5 5 5 6 7 8 9 10 8 8 9 9
13 10 7 12 12 9 7 7 6 3 1 3 5 4 5 4 5 4 5 6 4 4 1 4 4 3 6 4 5 7 4 5 1 3 3 3 4 4 5 5 4 4 4 4 5 7 8 8 8 9 9 8 7 7
11 4 13 15 12 8 6 2 3 4 4 5 4 3 7 5 4 1 4 4 4 5 4 4 5 6 2 4 4 4 4 3 2 2 1 3 3 4 5 5 4 4 5 5 5 6 8 8 9 9 9 7 7 7
3 2 3 11 12 7 4 3 3 5 7 7 5 5 6 5 2 4 3 3 4 4 3 2 5 4 4 3 2 1 0 2 0 1 0 1 1 3 4 5 5 5 6 5 6 7 7 7 8 6 7 7 8 7
7 2 9 16 14 4 5 5 4 4 7 2 4 6 4 3 4 4 3 4 4 3 2 3 5 4 4 2 2 0 1 2 0 2 1 1 1 2 4 5 5 4 6 7 7 5 5 4 3 5 5 5 5 5
7 5 8 18 8 3 5 4 3 4 3 3 4 5 4 3 3 4 5 6 6 3 4 5 4 3 2 1 3 3 2 1 0 1 1 1 2 2 3 4 4 5 5 4 4 2 3 3 3 3 4 5 5 5
4 5 12 12 2 3 3 2 4 3 3 3 2 4 3 4 4 5 4 6 6 4 4 4 4 3 1 1 2 3 0 1 3 4 4 2 2 2 3 4 4 5 5 4 4 4 4 4 4 4 5 4 3 3
3 6 3 8 3 4 3 4 3 2 4 2 3 4 3 3 4 5 3 6 5 7 7 6 3 3 4 3 3 3 2 3 3 1 2 1 3 3 4 5 5 5 5 5 5 5 5 5 5 5 5 5 5 5
3 2 2 5 4 2 2 1 4 4 4 3 3 3 3 2 2 2 4 5 5 0 2 3 3 3 3 2 1 1 1 3 3 3 2 4 3 2 3 5 5 5 5 6 5 5 5 6 7 5 6 6 6 6
3 2 3 3 7 4 2 4 4 3 2 3 3 3 1 2 2 3 5 5 3 3 3 3 3 4 2 3 4 3 2 2 3 1 2 4 4 4 5 4 5 5 6 5 5 4 5 5 7 7 6 7 7 7
5 6 5 5 4 6 6 4 4 3 4 5 3 3 1 2 3 3 4 1 2 2 3 1 1 2 2 3 1 2 4 4 4 5 2 4 5 3 4 4 4 5 5 4 5 5 5 6 6 7 7 8 9 9
7 5 5 5 5 5 6 4 6 7 5 3 4 0 1 2 3 4 1 2 4 3 2 1 2 2 0 1 2 1 2 2 4 5 4 3 4 4 4 5 5 5 5 5 6 8 8 8 8 10 9 10 10 9
5 5 4 1 2 2 2 1 2 3 4 5 3 5 5 5 5 2 3 2 4 3 3 3 3 3 4 4 3 3 4 4 4 3 3 4 4 4 4 4 5 5 7 8 7 8 9 10 9 10 9 8 8 11
5 8 4 4 3 3 4 4 5 6 5 4 3 6 4 5 1 3 3 3 3 3 2 2 3 3 4 4 4 5 4 2 1 3 3 4 3 2 2 3 2 2 1 5 7 7 7 8 9 9 10 9 9 9
4 10 8 5 5 4 5 5 4 3 2 2 3 4 2 2 5 4 5 5 4 4 4 4 4 4 5 4 4 3 4 3 4 6 8 7 5 4 3 3 4 4 3 3 6 5 7 6 7 7 8 8 8 8
6 9 6 5 4 5 1 2 3 3 2 4 3 2 3 4 5 6 6 6 6 5 4 4 4 4 5 5 5 5 2 2 2 4 6 6 3 3 3 3 4 4 3 4 4 4 4 4 4 4 4 4 5 7
6 7 4 5 5 4 4 3 1 1 0 1 2 3 2 3 4 5 6 5 3 4 5 6 5 4 5 6 6 6 4 1 3 5 6 4 4 3 4 4 2 2 4 5 4 5 5 6 6 7 7 7 7 7
7 6 7 6 7 7 4 6 3 2 4 5 4 3 4 4 4 3 5 6 5 7 8 7 7 7 6 5 4 4 6 6 7 5 7 5 5 5 4 3 2 3 4 6 5 6 7 7 6 6 7 8 8 9
11 6 6 7 5 7 6 6 3 3 2 1 3 2 3 5 6 4 3 6 6 7 8 8 8 7 7 6 4 4 6 6 9 9 7 6 7 5 3 3 3 4 5 5 6 8 9 10 8 8 8 7 8 9
Wind_Direction
158 160 160 158 157 163 165 165 156 151 145 146 149 141 143 131 154 268 88 23 323 132 151 209 148 178 169 195 180 160 171 196 186 215 236 233 240 246 268 255 252 251 244 227 230 244 260 263 284 275 313 316 306 317
164 162 159 158 162 164 166 164 162 159 155 150 148 144 142 149 158 296 116 87 9 61 71 135 234 248 258 297 272 156 193 173 197 231 233 251 251 254 250 255 239 245 258 270 265 266 270 289 278 259 284 299 300 283
172 173 169 170 172 169 166 163 161 165 162 158 156 156 156 149 161 302 102 115 72 19 238 195 222 217 230 235 250 261 211 223 220 221 275 294 261 276 262 250 258 260 254 242 255 262 269 275 313 304 298 295 271 272
171 167 169 169 173 173 173 171 165 168 168 165 165 165 165 165 171 243 117 149 335 13 298 74 142 220 219 217 230 233 257 279 249 253 239 247 260 259 263 281 280 275 293 282 272 269 285 284 288 305 314 316 292 261
177 164 148 154 157 159 173 170 167 164 165 164 174 176 174 169 157 228 239 211 237 285 334 317 312 248 234 227 229 224 228 233 238 227 236 241 249 259 264 268 257 246 251 255 262 269 271 285 300 300 297 279 288 253
176 165 171 169 166 159 161 161 168 168 180 174 174 181 172 159 173 139 354 200 193 155 300 274 312 261 230 219 230 228 222 225 231 227 234 241 244 255 253 247 255 249 253 260 268 273 274 280 277 276 280 274 279 256
183 163 167 139 152 165 169 184 168 165 168 167 167 164 159 160 195 173 346 49 2 91 200 262 254 190 218 216 217 231 223 216 227 230 230 246 248 229 248 257 260 267 276 270 264 271 276 265 289 292 278 259 247 204
171 163 160 160 163 167 153 155 151 147 145 137 133 133 142 160 275 261 195 123 102 92 259 253 254 203 169 195 207 226 212 184 203 230 233 228 246 248 249 252 256 256 257 258 255 255 261 266 265 277 248 214 203 215
152 154 160 157 163 153 145 142 135 133 132 133 133 134 161 226 230 237 162 159 150 218 231 222 243 264 165 213 171 181 210 211 195 220 226 229 212 225 244 248 248 257 266 269 264 259 255 244 241 247 257 231 244 252
145 144 146 142 139 137 137 135 134 135 132 129 167 156 214 197 193 113 125 150 160 192 224 256 242 247 203 252 181 212 195 223 209 217 212 224 248 253 249 250 256 251 252 264 293 244 232 236 235 231 251 241 253 239
138 135 134 135 136 137 139 140 141 133 147 173 189 219 91 145 179 201 209 200 178 211 207 232 234 253 202 246 273 233 244 179 242 160 199 218 237 238 245 237 242 251 254 262 274 260 242 232 237 230 220 218 196 146
137 134 136 138 140 144 147 152 156 190 169 348 355 107 136 205 211 216 213 202 228 242 164 220 228 258 257 254 267 226 248 215 276 152 229 253 323 19 354 357 265 254 265 258 255 255 234 259 254 209 159 161 137 104
141 144 147 148 147 154 163 169 193 91 65 210 210 186 199 165 225 220 195 212 215 175 197 200 196 186 201 239 257 287 250 250 33 232 252 279 86 69 7 344 287 278 264 258 249 243 230 137 34 136 104 96 116 107
149 152 155 160 166 156 176 178 134 268 234 226 180 178 226 175 234 212 254 117 77 94 128 199 240 206 157 192 251 252 263 287 256 235 235 37 77 102 82 41 77 52 17 27 48 55 73 89 81 80 97 115 127 123
156 157 159 163 167 176 181 184 193 231 227 205 221 233 219 234 297 324 273 274 236 160 155 233 255 229 168 211 213 261 228 239 236 252 36 58 100 127 112 88 79 74 66 76 90 93 103 106 102 99 98 110 110 119
155 153 173 160 170 177 185 191 199 209 207 214 229 242 237 255 226 186 217 243 220 114 179 245 258 220 213 207 185 222 243 243 352 44 43 77 125 108 120 106 88 73 85 104 108 113 109 106 108 103 97 101 106 119
175 230 153 170 164 175 203 247 190 211 228 216 233 227 275 299 308 287 222 235 160 161 221 217 225 224 176 222 219 222 229 357 32 1 16 2 147 152 140 126 121 127 119 120 116 109 109 115 126 123 115 120 117 112
238 79 191 180 173 165 192 196 258 222 228 221 237 217 193 237 252 250 243 185 194 219 253 274 308 240 235 237 247 344 313 124 243 302 68 78 134 137 168 137 138 135 127 133 130 129 133 146 135 120 127 132 127 123
224 241 206 180 182 175 188 197 221 245 218 220 231 245 231 231 226 252 287 266 206 151 280 250 255 241 232 247 314 358 292 269 212 140 126 148 52 136 159 128 136 146 145 154 155 155 156 158 123 143 150 167 146 146
277 275 149 173 182 179 211 195 218 255 233 203 215 230 219 215 182 182 205 210 206 204 215 222 239 310 330 26 339 346 28 135 189 312 327 263 225 183 191 186 193 173 169 171 177 139 157 164 163 163 180 173 159 165
188 137 161 175 143 250 286 187 182 235 266 235 183 216 225 189 222 205 215 197 206 221 232 241 260 227 298 334 317 314 324 249 248 275 314 200 190 238 202 205 169 179 188 190 191 185 201 204 170 168 160 156 160 156
84 183 131 186 234 186 247 253 287 168 227 241 207 222 231 204 219 213 213 209 235 231 250 277 287 300 257 256 305 258 347 243 261 289 212 120 157 194 209 201 190 190 200 192 204 184 196 188 163 168 165 151 155 152
166 246 188 192 219 244 262 185 232 222 234 227 198 235 227 214 213 147 231 221 231 162 304 276 288 294 291 303 251 181 228 257 263 266 243 254 261 156 207 204 208 194 207 207 203 182 187 175 168 163 151 157 166 157
15 205 234 213 212 185 172 201 231 248 256 239 229 251 243 224 164 246 256 254 109 140 209 230 259 246 209 240 226 188 183 250 280 258 262 262 240 223 214 215 215 217 216 211 191 172 163 170 163 171 155 179 178 176
181 194 239 202 202 173 199 201 205 233 231 217 253 261 166 192 238 246 249 244 107 60 46 340 239 238 272 285 273 196 201 270 287 300 219 235 257 261 198 208 207 211 202 192 174 162 162 169 172 176 177 190 189 188
217 177 221 205 165 212 185 202 200 222 239 236 245 271 177 230 245 243 238 111 117 156 152 165 337 49 132 15 324 305 315 277 280 282 288 265 257 245 217 228 225 205 194 200 184 181 184 188 185 187 193 196 194 191
227 175 192 272 266 196 184 215 202 224 206 215 224 185 194 219 225 191 119 175 134 98 87 64 12 6 357 349 357 351 337 313 289 313 324 310 298 273 257 247 233 243 176 189 198 193 196 191 191 195 201 195 198 202
346 20 320 186 219 234 231 218 207 217 221 216 214 198 216 205 204 81 64 77 88 73 56 31 4 346 336 342 349 325 312 327 276 261 260 254 253 274 281 294 340 19 209 173 203 204 201 196 195 196 197 199 191 192
334 356 318 234 215 213 230 229 236 221 6 236 237 220 201 66 39 60 47 33 30 22 4 353 352 17 319 303 294 291 303 296 292 276 274 274 264 226 210 239 253 234 226 205 197 205 207 193 195 198 199 202 194 182
319 337 299 285 247 223 201 357 346 49 8 1 335 248 191 100 48 23 36 40 41 41 26 14 1 358 346 338 328 322 253 244 274 285 286 299 11 19 328 284 259 232 205 211 186 160 147 150 146 171 180 173 175 177
290 291 291 310 299 43 7 342 243 213 85 320 7 301 341 83 105 43 35 11 27 46 38 27 18 18 0 358 350 333 322 70 343 301 280 276 271 275 291 276 258 222 199 196 186 183 173 181 189 185 186 193 198 197
301 329 324 292 329 330 322 345 315 257 173 201 168 184 172 192 117 79 10 356 30 26 19 10 1 352 341 333 319 304 285 294 305 299 304 290 286 280 251 229 219 220 222 203 194 193 193 197 198 198 199 205 214 210
295 305 349 328 324 334 336 326 272 343 214 181 84 36 43 15 73 70 80 23 14 19 1 348 338 324 319 332 353 348 352 355 345 331 319 304 285 280 280 255 237 228 229 226 215 210 192 198 204 203 205 207 204 201